This is the latest recevied weather packets stored in our database for station/object N5XJB. If no packets are shown the sender has not sent any weather packets the latest 10 day(s).
| Time | Temp. | Humidity | Pressure | Rain* | Wind** | Luminosity | Snow |
|---|---|---|---|---|---|---|---|
| 1777615706 | 19.44° C | 98% | 1012.4 hPa | 0 mm | - | 0 W/m² | - |
| 1777615403 | 19.44° C | 97% | 1013.1 hPa | 0 mm | - | 0 W/m² | - |
| 1777615102 | 19.44° C | 98% | 1013.1 hPa | 2.29 mm | - | 0 W/m² | - |
| 1777614798 | 19.44° C | 97% | 1012.7 hPa | 2.29 mm | - | 0 W/m² | - |
| 1777614494 | 19.44° C | 97% | 1012.7 hPa | 1.78 mm | - | 0 W/m² | - |
| 1777614190 | 20° C | 97% | 1013.1 hPa | 1.78 mm | - | 0 W/m² | - |
| 1777613885 | 20° C | 97% | 1013.7 hPa | 1.78 mm | - | 0 W/m² | - |
| 1777613582 | 20° C | 97% | 1013.7 hPa | 1.78 mm | - | 0 W/m² | - |
| 1777613279 | 20° C | 97% | 1013.7 hPa | 1.78 mm | - | 0 W/m² | - |
| 1777612976 | 20° C | 97% | 1013.4 hPa | 1.52 mm | - | 0 W/m² | - |
| 1777612671 | 20° C | 97% | 1014.1 hPa | 1.52 mm | - | 0 W/m² | - |
| 1777612367 | 20° C | 96% | 1014.1 hPa | 1.52 mm | - | 0 W/m² | - |
| 1777612063 | 20° C | 96% | 1013.7 hPa | 1.02 mm | - | 0 W/m² | - |
| 1777611757 | 20° C | 95% | 1014.1 hPa | 0.25 mm | - | 0 W/m² | - |
| 1777611455 | 20.56° C | 94% | 1013.7 hPa | 4.57 mm | - | 0 W/m² | - |
| 1777611152 | 20.56° C | 92% | 1014.1 hPa | 1.78 mm | - | 0 W/m² | - |
| 1777610847 | 21.11° C | 89% | 1013.7 hPa | 0 mm | - | 0 W/m² | - |
| 1777610542 | 21.11° C | 89% | 1013.1 hPa | 0 mm | - | 0 W/m² | - |
| 1777610237 | 21.11° C | 89% | 1012.7 hPa | 0 mm | - | 0 W/m² | - |
| 1777609935 | 21.11° C | 89% | 1012.4 hPa | 0 mm | - | 0 W/m² | - |
| 1777609631 | 21.11° C | 89% | 1012.4 hPa | 0 mm | - | 0 W/m² | - |
| 1777609328 | 21.11° C | 89% | 1011.7 hPa | 0 mm | - | 0 W/m² | - |
| 1777609025 | 21.11° C | 89% | 1011.4 hPa | 0 mm | - | 0 W/m² | - |
| 1777608723 | 21.11° C | 89% | 1011 hPa | 0 mm | - | 0 W/m² | - |
| 1777608419 | 21.67° C | 89% | 1011.4 hPa | 0 mm | - | 0 W/m² | - |
* Rain latest hour (hover to see other rain measurements)
** Current wind speed in m/s (hover to see current wind gust speed)